Location: Peebles
(55.6412°N, 3.1714°W)
Time: 12:23:32
(UTC+00:00)

CUTE-I - Pass Details

Date: 19 December 2023
Orbit: 807 x 823 km, 98.7° (Epoch: 24 February)

Event Time Altitude Azimuth Distance (km) Brightness Sun altitude
Rises 18:11:23 0° 188° (S) 3,329 ? -19.4°
Reaches altitude 10° 18:13:53 10° 196° (SSW) 2,404 ? -19.7°
Maximum altitude 18:18:49 38° 264° (W) 1,244 ? -20.4°
Drops below altitude 10° 18:23:48 10° 332° (NNW) 2,430 ? -21.1°
Sets 18:26:21 0° 340° (NNW) 3,369 ? -21.4°
